This is the latest recevied weather packets stored in our database for station/object HB9FHL-13. If no packets are shown the sender has not sent any weather packets the latest 10 day(s).
| Time | Temp. | Humidity | Pressure | Rain* | Wind** | Luminosity | Snow |
|---|---|---|---|---|---|---|---|
| 1787981528 | 15.56° C | - | 1019.7 hPa | 0 mm | - | - | - |
| 1787981232 | 15.56° C | - | 1018.8 hPa | 0 mm | - | - | - |
| 1787981228 | 15.56° C | - | 1018.8 hPa | 0 mm | - | - | - |
| 1787980930 | 14.44° C | - | 1020.7 hPa | 0 mm | - | - | - |
| 1787980927 | 14.44° C | - | 1020.7 hPa | 0 mm | - | - | - |
| 1787980630 | 15.56° C | - | 1018.6 hPa | 0 mm | - | - | - |
| 1787980626 | 15.56° C | - | 1018.6 hPa | 0 mm | - | - | - |
| 1787980325 | 15.56° C | - | 1020.7 hPa | 0 mm | - | - | - |
| 1787979725 | 15° C | - | 1018.6 hPa | 0 mm | - | - | - |
| 1787979424 | 15° C | - | 1017.3 hPa | 0 mm | - | - | - |
| 1787979124 | 15° C | - | 1017.3 hPa | 0 mm | - | - | - |
| 1787978823 | 15° C | - | 1020.2 hPa | 0 mm | - | - | - |
| 1787978569 | 14.44° C | - | 1019.4 hPa | 0 mm | - | - | - |
| 1787978523 | 14.44° C | - | 1019.4 hPa | 0 mm | - | - | - |
| 1787978222 | 15° C | - | 1021.2 hPa | 0 mm | - | - | - |
| 1787977922 | 15° C | - | 1020.7 hPa | 0 mm | - | - | - |
| 1787977685 | 15.56° C | - | 1020.1 hPa | 0 mm | - | - | - |
| 1787977621 | 15.56° C | - | 1020.1 hPa | 0 mm | - | - | - |
| 1787977321 | 15.56° C | - | 1019.6 hPa | 0 mm | - | - | - |
| 1787977020 | 15.56° C | - | 1017.7 hPa | 0 mm | - | - | - |
| 1787976720 | 16.11° C | - | 1019.2 hPa | 0 mm | - | - | - |
| 1787976480 | 15.56° C | - | 1023.1 hPa | 0 mm | - | - | - |
| 1787976419 | 15.56° C | - | 1023.1 hPa | 0 mm | - | - | - |
| 1787976119 | 16.11° C | - | 1021.3 hPa | 0 mm | - | - | - |
| 1787975818 | 15.56° C | - | 1019.2 hPa | 0 mm | - | - | - |
* Rain since midnight (hover to see other rain measurements)
** Current wind speed in m/s (hover to see current wind gust speed)